Regional Weather Roundup
Issued by NWS Jackson, KY

Home | Current Version | Previous Version | Graphics & Text | Print | Product List | Glossary On
Versions: 1 2 3 4 5 6 7 8 9 10 11 12 13 14 15 16 17 18 19 20 21 22 23 24 25 26 27
000
ASUS43 KJKL 241210
RWRJKL

EAST KENTUCKY HOURLY WEATHER ROUNDUP
NATIONAL WEATHER SERVICE JACKSON KY
700 AM EST FRI FEB 24 2017

NOTE: "FAIR" INDICATES FEW OR NO CLOUDS BELOW 12,000 FEET WITH
NO SIGNIFICANT WEATHER AND/OR OBSTRUCTIONS TO VISIBILITY.

* THESE REPORTS ARE NOT UNDER NWS QUALITY CONTROL AND MAY NOT
  REPORT WEATHER SUCH AS PRECIPITATION AND FOG.

KYZ079-080-083-085-087-088-110-112-115-119-120-241300
...EASTERN KENTUCKY...

CITY           SKY/WX    TMP DP  RH WIND       PRES   REMARKS
JACKSON        CLEAR     55  48  77 SW3       29.81F
6HR MIN TEMP:  55; 6HR MAX TEMP:  62;

LONDON         CLEAR     58  47  66 S6        29.81S
6HR MIN TEMP:  53; 6HR MAX TEMP:  59;

SOMERSET*      CLEAR     57  46  67 S6        29.80F
MONTICELLO*    CLEAR     62  51  67 S8G16     29.80F
6HR MIN TEMP:  54; 6HR MAX TEMP:  63;

WILLIAMSBURG*  SUNNY     57  50  77 SE8       29.82S
MIDDLESBORO*   CLEAR     44  44 100 CALM      29.86S FOG
6HR MIN TEMP:  44; 6HR MAX TEMP:  49;

HARLAN APT*    SUNNY     54  46  76 CALM      29.87R
PIKE CO APT*     N/A     59  49  69 S6        29.84S
BIG SANDY APT* SUNNY     59  50  71 S5        29.83F
6HR MIN TEMP:  59; 6HR MAX TEMP:  61;

MOREHEAD APT*  SUNNY     57  50  77 S5        29.80S
ASHLAND*       CLEAR     46  45  93 E5        29.78F
$$

KYZ035-036-041-042-044-050-067-078-099-241300
...CENTRAL KENTUCKY...

CITY           SKY/WX    TMP DP  RH WIND       PRES   REMARKS
MT STERLING*   CLEAR     55  50  82 S8        29.79S
FLEMING/MASON* CLEAR     56  51  81 S10       29.77S
DANVILLE*      CLEAR     55  50  82 S6        29.77S
LEXINGTON      CLEAR     58  50  75 S12       29.75F
6HR MIN TEMP:  58; 6HR MAX TEMP:  60;

FRANKFORT      CLEAR     58  50  75 S7        29.72F
6HR MIN TEMP:  57; 6HR MAX TEMP:  60;

LOUISVILLE     MOCLDY    63  53  70 S8        29.69F
6HR MIN TEMP:  59; 6HR MAX TEMP:  65;

LEBANON*         N/A     61  52  72 S13       29.74F
GLASGOW*       CLEAR     58  53  82 S5        29.74S
BOWLING GREEN  CLEAR     63  55  75 S12       29.72S
6HR MIN TEMP:  62; 6HR MAX TEMP:  64;

$$

KYZ091>093-OHZ055-061-077-WVZ005-015-034-035-042-241300
...SOUTHERN OHIO/WEST VIRGINIA...

CITY           SKY/WX    TMP DP  RH WIND       PRES   REMARKS
COVINGTON      MOCLDY    59  53  80 S13       29.70S
COLUMBUS       PTCLDY    62  53  72 S13G18    29.72F
DAYTON         PTCLDY    60  52  74 S18G28    29.68F
WILMINGTON     CLEAR     58  52  80 S12       29.71F
HUNTINGTON     CLEAR     53  49  86 SE3       29.80S
CHARLESTON     PTCLDY    47  45  93 CALM      29.83S
PINEVILLE*     CLEAR     42  39  91 MISG      29.93F
BECKLEY        CLEAR     53  46  77 SE8       29.89S
BLUEFIELD      CLEAR     54  44  69 MISG      29.92R
LOGAN CO APT*    N/A     59  50  72 CALM      29.86S
$$

VAZ002-007-008-TNZ017-027-036-066-071-241300
...SOUTHWEST VIRGINIA/EAST TENNESSEE...

CITY           SKY/WX    TMP DP  RH WIND       PRES   REMARKS
WISE*          CLEAR     55  45  67 CALM      29.91S
JONESVILLE*      N/A     45  45 100 CALM      29.90S
ABINGDON*      CLEAR     49  46  88 CALM      29.91R
BRISTOL        MOCLDY    45  43  93 CALM      29.89R
MORRISTOWN*    SUNNY     50  48  93 CALM      29.86S
SEVIERVILLE*   SUNNY     43  43 100 CALM      29.87R
KNOXVILLE      PTCLDY    50  48  93 NE5       29.85S
LAFOLLETTE*    MOSUNNY   54  48  82 CALM      29.88R
OAK RIDGE      CLEAR     50  48  93 CALM      29.87R
CROSSVILLE     PTCLDY    59  49  69 S10       29.85S
NASHVILLE      PTCLDY    62  55  77 SE8       29.75S
$$

...KEY TO REMARKS...
VSB - VISIBILITY IN MILES
WCI - WIND CHILL INDEX
HX  - HEAT INDEX

$$




USA.gov is the U.S. government's official web portal to all federal, state and local government web resources and services.